STARLINK-1219, 45210

Orbit data source: Space-Track

STARLINK-1219, 45210 is a payload satellite owned by SpaceX/Seattle (US) in LEO that was launched on Mon, 17 Feb 2020 UTC via an FALCON 9 launch vehicle from the Air Force Eastern Test Range (AFETR). Payloads include a variety of satellites, spacecraft, and rockets equipped with specific instruments for various scientific and technological missions. These include communications satellites like Starlink; space stations such as the ISS; scientific satellites like the Hubble; Earth observation satellites from companies like Planet Labs, Umbra, and HawkEye 360; GPS; miniature CubeSats for education and research; and military/defense satellites.

Loading next visibility...
STARLINK-1219 details
Identifier
45210, 2020-012AJ
Orbit
LEO
Last TLE update6 hours ago
Origin
Flag of USSpaceX/Seattle (US)
ManufacturerSpaceX/Seattle
MissionOperational Commercial Communications
Bus & MotorSTARLINK, Unknown motor
Mass260 kg wet, ~248 kg dry
Launch date (UTC)
2020-02-17 (5 years ago)
Launch vehicle
FALCON 9
Launch site
Air Force Eastern Test Range (AFETR)
Object type
Payload
Rocket body
Debris
Shape & HBRBox + 1 Pan, 8.86 m
Radar Cross Section13.562 m², Large (>1 m²)

Expand to show TLE details & history

TLE from 6 hours ago
0 STARLINK-1219
1 45210U 20012AJ  24361.25509433 -.00000358  00000-0 -51481-5 0  9996
2 45210  53.0528 194.8269 0001185  92.2058 267.9067 15.06407997268929
Epoch: 2024-12-26T06:07Z
Definitive object data (Epoch: 2024-12-26T06:07:20.15Z)
Latitude0.00003°
Longitude7.75584°
Altitude548.096 km
Speed7.589 km/s
True Right ascension12h 59m 18s
True Declination0° 00' 00"
Sunlit
Object was in daylight at TLE epoch
Visualization TLE readout
Latitude20.39063°
Longitude22.68578°
Altitude547.354 km
Speed7.592 km/s
Apparent Right ascension17h 09m 02s
Apparent Declination-26° 30' 40"
Sunlit
Object is in daylight
Visualization observer readout
Local Sidereal Time11:57:50
Azimuth117.933° SE
Elevation-8.125°
Doppler factor1
Orbital elements
Apogee altitude548.279 km
Perigee altitude546.637 km
Semi-major axis6,925.595 km
Eccentricity0.0001185
Inclination53.0528°
RAAN194.8269°
Arg. of periapsis92.2058°
True anomaly267.89313°
Mean anomaly267.9067°
Eccentric anomaly267.89992°
Mean motion3.7658 °/min
BSTAR-0.0000051481
Orbital period95.6 mins
Loading maneuver chart data...

STARLINK-1219 Visibility forecast

Observer location: undefined°, undefined

Span
Click to sort rows by Start time (UTC) header in descending order
Start Az.
Max El. time (UTC)
Max El. Az.
Max El.
End time (UTC)
End Az.
8 mins2024-12-26 15:50:18.485Z221.902° SW2024-12-26 15:54:18.485Z131.975° SE43.739°2024-12-26 15:58:18.485Z53.661° ENE
5 mins2024-12-26 17:32:18.485Z298.915° NW2024-12-26 17:34:18.485Z340.152° N21.718°2024-12-26 17:37:18.485Z29.344° NE
4 mins2024-12-26 20:54:18.485Z352.979° N2024-12-26 20:55:18.485Z11.148° NNE17.79°2024-12-26 20:58:18.485Z61.797° ENE
6 mins2024-12-26 22:33:18.485Z316.879° NNW2024-12-26 22:36:18.485Z89.255° E41.632°2024-12-26 22:39:18.485Z122.373° SE
|